When you browse on this site, cookies collect data to enhance your experience and personalize the content and advertising you see.
Visit our Privacy Policy to learn more. By continuing to use the site, you agree to this use of cookies and data.
  • In Hungary
  • List of Countries
  • For 7 days
  • Water Temperature
  • Satellite Maps
  • Weather Map
  • News
  • Weather Widgets
  • user-avatar
    Login

    Hourly Weather Stoughton

    Today, 15 December, Saturday

    Time Temperature Precipitation Wind Pressure Humidity
    00:00 +6°C° 0 mm 4 mps 762 mmHg 95%
    01:00 +6°C° 0 mm 4 mps 762 mmHg 95%
    02:00 +6°C° 0.1 mm 4 mps 762 mmHg 94%
    03:00 +5°C° 0.1 mm 4 mps 761 mmHg 94%
    04:00 +5°C° 0.1 mm 3 mps 761 mmHg 93%
    05:00 +4°C° 0 mm 3 mps 761 mmHg 92%
    06:00 +4°C° 0 mm 3 mps 761 mmHg 91%
    07:00 +4°C° 0 mm 3 mps 761 mmHg 90%
    08:00 +5°C° 0 mm 3 mps 761 mmHg 87%
    09:00 +7°C° 0 mm 3 mps 761 mmHg 84%
    10:00 +8°C° 0 mm 2 mps 762 mmHg 81%
    11:00 +8°C° 0 mm 2 mps 761 mmHg 77%
    12:00 +9°C° 0 mm 2 mps 761 mmHg 74%
    13:00 +9°C° 0 mm 2 mps 760 mmHg 71%
    14:00 +8°C° 0 mm 2 mps 760 mmHg 73%
    15:00 +7°C° 0 mm 3 mps 760 mmHg 75%
    16:00 +5°C° 0 mm 3 mps 760 mmHg 77%
    17:00 +4°C° 0 mm 3 mps 761 mmHg 79%
    18:00 +4°C° 0 mm 3 mps 761 mmHg 82%
    19:00 +3°C° 0 mm 4 mps 761 mmHg 84%
    20:00 +3°C° 0 mm 4 mps 761 mmHg 83%
    21:00 +3°C° 0 mm 4 mps 762 mmHg 83%
    22:00 +3°C° 0 mm 4 mps 762 mmHg 82%
    23:00 +3°C° 0 mm 4 mps 762 mmHg 81%

    Tomorrow, 16 December, Sunday

    Time Temperature Precipitation Wind Pressure Humidity
    00:00 +1°C° 0 mm 4 mps 762 mmHg 80%
    01:00 +1°C° 0 mm 5 mps 762 mmHg 80%
    02:00 +1°C° 0 mm 5 mps 762 mmHg 81%
    03:00 +1°C° 0 mm 4 mps 761 mmHg 83%
    04:00 0°C° 0 mm 4 mps 761 mmHg 85%
    05:00 +1°C° 0 mm 4 mps 761 mmHg 85%
    06:00 +1°C° 0 mm 5 mps 761 mmHg 85%
    07:00 +1°C° 0 mm 5 mps 762 mmHg 85%
    08:00 +3°C° 0.2 mm 4 mps 762 mmHg 84%
    09:00 +3°C° 0.2 mm 4 mps 762 mmHg 82%
    10:00 +4°C° 0.2 mm 4 mps 762 mmHg 80%
    11:00 +4°C° 0.5 mm 4 mps 761 mmHg 80%
    12:00 +4°C° 0.5 mm 4 mps 760 mmHg 80%
    13:00 +3°C° 0.5 mm 5 mps 759 mmHg 80%
    14:00 +2°C° 0.2 mm 5 mps 759 mmHg 81%
    15:00 +2°C° 0.2 mm 5 mps 758 mmHg 81%
    16:00 +2°C° 0.2 mm 5 mps 757 mmHg 82%
    17:00 +2°C° 0.1 mm 5 mps 757 mmHg 82%
    18:00 +2°C° 0.1 mm 5 mps 757 mmHg 82%
    19:00 +2°C° 0.1 mm 5 mps 756 mmHg 83%
    20:00 +2°C° 0.3 mm 5 mps 756 mmHg 84%
    21:00 +2°C° 0.3 mm 5 mps 756 mmHg 85%
    22:00 +2°C° 0.3 mm 5 mps 755 mmHg 87%
    23:00 +2°C° 0.1 mm 5 mps 755 mmHg 87%

    Day after tomorrow, 17 December, Monday

    Time Temperature Precipitation Wind Pressure Humidity
    00:00 +2°C° 0.1 mm 5 mps 754 mmHg 87%
    01:00 +2°C° 0.1 mm 5 mps 753 mmHg 87%
    02:00 +3°C° 0.1 mm 4 mps 753 mmHg 88%
    03:00 +3°C° 0.1 mm 4 mps 752 mmHg 89%
    04:00 +3°C° 0.1 mm 4 mps 752 mmHg 90%
    05:00 +3°C° 0.1 mm 3 mps 752 mmHg 90%
    06:00 +2°C° 0.1 mm 3 mps 752 mmHg 91%
    07:00 +3°C° 0.1 mm 2 mps 752 mmHg 91%
    08:00 +3°C° 0 mm 2 mps 751 mmHg 90%
    09:00 +4°C° 0 mm 2 mps 751 mmHg 88%
    10:00 +5°C° 0 mm 1 mps 751 mmHg 87%
    11:00 +5°C° 0 mm 2 mps 750 mmHg 85%
    12:00 +5°C° 0 mm 2 mps 749 mmHg 82%
    13:00 +6°C° 0 mm 2 mps 748 mmHg 80%
    14:00 +6°C° 0 mm 2 mps 747 mmHg 82%
    15:00 +5°C° 0 mm 3 mps 747 mmHg 83%
    16:00 +5°C° 0 mm 3 mps 747 mmHg 84%
    17:00 +4°C° 0.2 mm 4 mps 747 mmHg 79%
    18:00 +2°C° 0.2 mm 5 mps 746 mmHg 73%
    19:00 +1°C° 0.2 mm 6 mps 746 mmHg 67%
    20:00 -1°C° 0 mm 6 mps 746 mmHg 69%
    21:00 -1°C° 0 mm 6 mps 746 mmHg 71%
    22:00 -2°C° 0 mm 6 mps 746 mmHg 73%
    23:00 -2°C° 0 mm 7 mps 747 mmHg 70%

    18 December, Tuesday

    Time Temperature Precipitation Wind Pressure Humidity
    00:00 -3°C° 0 mm 7 mps 747 mmHg 67%
    01:00 -4°C° 0 mm 7 mps 747 mmHg 65%
    02:00 -5°C° 0 mm 8 mps 748 mmHg 63%
    03:00 -6°C° 0 mm 8 mps 748 mmHg 60%
    04:00 -7°C° 0 mm 8 mps 749 mmHg 58%
    05:00 -7°C° 0 mm 8 mps 749 mmHg 57%
    06:00 -8°C° 0 mm 8 mps 750 mmHg 55%
    07:00 -8°C° 0 mm 8 mps 751 mmHg 54%
    08:00 -9°C° 0 mm 9 mps 751 mmHg 50%
    09:00 -8°C° 0 mm 9 mps 751 mmHg 47%
    10:00 -8°C° 0 mm 9 mps 752 mmHg 43%
    11:00 -6°C° 0 mm 9 mps 752 mmHg 42%
    12:00 -6°C° 0 mm 9 mps 752 mmHg 40%
    13:00 -6°C° 0 mm 9 mps 752 mmHg 39%
    14:00 -6°C° 0 mm 9 mps 752 mmHg 40%
    15:00 -7°C° 0 mm 8 mps 752 mmHg 41%
    16:00 -7°C° 0 mm 8 mps 753 mmHg 43%
    17:00 -7°C° 0 mm 8 mps 753 mmHg 43%
    18:00 -8°C° 0 mm 8 mps 754 mmHg 44%
    19:00 -8°C° 0 mm 8 mps 755 mmHg 44%
    20:00 -9°C° 0 mm 7 mps 755 mmHg 45%
    21:00 -9°C° 0 mm 7 mps 756 mmHg 45%
    22:00 -9°C° 0 mm 6 mps 756 mmHg 45%
    23:00 -9°C° 0 mm 6 mps 756 mmHg 45%

    19 December, Wednesday

    Time Temperature Precipitation Wind Pressure Humidity
    00:00 -9°C° 0 mm 6 mps 756 mmHg 45%
    01:00 -9°C° 0 mm 6 mps 757 mmHg 45%
    02:00 -8°C° 0 mm 5 mps 757 mmHg 44%
    03:00 -8°C° 0 mm 5 mps 757 mmHg 43%
    04:00 -8°C° 0 mm 5 mps 757 mmHg 43%
    05:00 -8°C° 0 mm 5 mps 757 mmHg 42%
    06:00 -8°C° 0 mm 4 mps 758 mmHg 42%
    07:00 -8°C° 0 mm 4 mps 758 mmHg 42%
    08:00 -7°C° 0 mm 4 mps 758 mmHg 38%
    09:00 -4°C° 0 mm 3 mps 758 mmHg 35%
    10:00 -2°C° 0 mm 3 mps 758 mmHg 31%
    11:00 -1°C° 0 mm 3 mps 757 mmHg 29%
    12:00 0°C° 0 mm 3 mps 757 mmHg 27%
    13:00 +2°C° 0 mm 3 mps 756 mmHg 26%
    14:00 +1°C° 0 mm 3 mps 756 mmHg 30%
    15:00 0°C° 0 mm 3 mps 756 mmHg 35%
    16:00 0°C° 0 mm 3 mps 756 mmHg 39%
    17:00 -1°C° 0 mm 3 mps 756 mmHg 44%
    18:00 -1°C° 0 mm 3 mps 756 mmHg 49%
    19:00 -2°C° 0 mm 3 mps 756 mmHg 53%
    20:00 -2°C° 0 mm 3 mps 755 mmHg 57%
    21:00 -2°C° 0 mm 3 mps 755 mmHg 60%
    22:00 -2°C° 0 mm 3 mps 755 mmHg 64%
    23:00 -2°C° 0 mm 3 mps 754 mmHg 66%

    20 December, Thursday

    Time Temperature Precipitation Wind Pressure Humidity
    00:00 -2°C° 0 mm 3 mps 754 mmHg 68%
    01:00 -4°C° 0 mm 3 mps 754 mmHg 70%
    02:00 -4°C° 0 mm 3 mps 753 mmHg 72%
    03:00 -2°C° 0 mm 3 mps 753 mmHg 73%
    04:00 -2°C° 0 mm 3 mps 752 mmHg 75%
    05:00 -2°C° 0 mm 3 mps 752 mmHg 76%
    06:00 -2°C° 0 mm 3 mps 752 mmHg 76%
    07:00 -1°C° 0 mm 3 mps 752 mmHg 77%
    08:00 0°C° 0 mm 3 mps 752 mmHg 73%
    09:00 +1°C° 0 mm 4 mps 751 mmHg 69%
    10:00 +4°C° 0 mm 4 mps 751 mmHg 64%
    11:00 +5°C° 0 mm 4 mps 750 mmHg 64%
    12:00 +6°C° 0 mm 5 mps 749 mmHg 63%
    13:00 +7°C° 0 mm 5 mps 749 mmHg 62%
    14:00 +6°C° 0 mm 4 mps 748 mmHg 69%
    15:00 +5°C° 0 mm 4 mps 748 mmHg 77%
    16:00 +4°C° 0 mm 3 mps 748 mmHg 85%
    17:00 +4°C° 0.1 mm 4 mps 747 mmHg 87%
    18:00 +3°C° 0.1 mm 4 mps 747 mmHg 89%
    19:00 +3°C° 0.1 mm 4 mps 747 mmHg 92%
    20:00 +3°C° 0.5 mm 4 mps 747 mmHg 93%
    21:00 +3°C° 0.5 mm 4 mps 746 mmHg 94%
    22:00 +4°C° 0.5 mm 3 mps 746 mmHg 95%
    23:00 +4°C° 0.8 mm 3 mps 745 mmHg 96%
    Show more